QPF
0.00 0.00 0.00 0.00 0.00 0.00 0.00 0.00 0.00 0.00 0.00 0.00 0.00 0.00 0.00 0.00 0.00 0.00 0.00 0.00 0.00 0.00 0.00 0.00 0.00 0.00 0.00 0.00 0.00 0.00 0.00 0.00 0.00 0.01 0.01 0.01 0.02 0.07 0.06 0.05 0.11 0.19 0.16 0.15
0.00 0.00 0.00 0.00 0.00 0.00 0.00 0.00 0.00 0.00 0.00 0.00 0.00 0.00 0.00 0.00 0.00 0.00 0.00 0.00 0.00 0.00 0.00 0.00 0.00 0.00 0.00 0.00 0.00 0.01 0.00 0.00 0.00 0.01 0.01 0.02 0.01 0.02 0.02 0.04 0.09 0.14 0.12 0.10
0.00 0.00 0.00 0.00 0.00 0.00 0.00 0.00 0.00 0.00 0.00 0.00 0.00 0.00 0.00 0.00 0.00 0.00 0.00 0.00 0.00 0.00 0.00 0.00 0.00 0.00 0.00 0.01 0.01 0.01 0.01 0.01 0.01 0.01 0.02 0.02 0.01 0.01 0.02 0.05 0.08 0.11 0.11 0.10
0.00 0.00 0.00 0.00 0.00 0.00 0.00 0.01 0.01 0.01 0.01 0.00 0.00 0.00 0.00 0.00 0.00 0.00 0.00 0.00 0.00 0.00 0.00 0.00 0.00 0.00 0.01 0.01 0.01 0.01 0.02 0.02 0.02 0.02 0.02 0.02 0.01 0.01 0.02 0.04 0.08 0.12 0.09 0.09
0.00 0.00 0.00 0.00 0.00 0.01 0.01 0.01 0.01 0.01 0.00 0.00 0.00 0.00 0.00 0.00 0.00 0.00 0.00 0.00 0.00 0.00 0.00 0.00 0.00 0.01 0.01 0.02 0.02 0.02 0.03 0.04 0.04 0.02 0.02 0.01 0.01 0.01 0.01 0.02 0.04 0.08 0.08 0.07
0.00 0.00 0.00 0.00 0.01 0.02 0.02 0.03 0.01 0.00 0.00 0.00 0.00 0.00 0.00 0.00 0.00 0.00 0.00 0.00 0.00 0.00 0.00 0.01 0.01 0.01 0.02 0.03 0.04 0.05 0.06 0.06 0.05 0.03 0.03 0.03 0.02 0.02 0.01 0.01 0.02 0.03 0.04 0.05
0.00 0.01 0.02 0.01 0.01 0.02 0.03 0.03 0.01 0.00 0.00 0.00 0.00 0.00 0.01 0.00 0.00 0.00 0.00 0.01 0.01 0.01 0.01 0.01 0.02 0.04 0.05 0.07 0.09 0.10 0.10 0.09 0.07 0.05 0.04 0.04 0.03 0.03 0.02 0.02 0.01 0.01 0.02 0.02
0.01 0.03 0.04 0.01 0.01 0.01 0.01 0.00 0.00 0.00 0.00 0.00 0.00 0.00 0.00 0.00 0.00 0.00 0.00 0.00 0.01 0.01 0.01 0.02 0.03 0.06 0.10 0.12 0.13 0.15 0.15 0.15 0.12 0.09 0.06 0.04 0.03 0.03 0.03 0.02 0.01 0.01 0.01 0.00
0.01 0.02 0.01 0.00 0.01 0.01 0.01 0.01 0.01 0.01 0.00 0.00 0.00 0.00 0.00 0.00 0.00 0.00 0.00 0.01 0.01 0.01 0.02 0.04 0.06 0.12 0.19 0.21 0.21 0.20 0.20 0.19 0.16 0.12 0.10 0.08 0.05 0.04 0.03 0.01 0.01 0.01 0.01 0.00
0.02 0.01 0.01 0.00 0.00 0.00 0.01 0.01 0.00 0.00 0.00 0.00 0.00 0.00 0.00 0.00 0.00 0.00 0.01 0.01 0.02 0.02 0.03 0.05 0.10 0.19 0.28 0.29 0.28 0.27 0.25 0.22 0.19 0.16 0.12 0.10 0.08 0.06 0.03 0.01 0.01 0.01 0.01 0.00
0.02 0.01 0.01 0.00 0.00 0.00 0.00 0.00 0.00 0.00 0.00 0.00 0.00 0.00 0.00 0.00 0.00 0.00 0.00 0.01 0.01 0.02 0.02 0.04 0.07 0.15 0.29 0.36 0.39 0.39 0.35 0.28 0.23 0.18 0.14 0.11 0.10 0.09 0.05 0.02 0.01 0.01 0.01 0.00
0.01 0.00 0.00 0.00 0.00 0.00 0.00 0.00 0.00 0.00 0.00 0.00 0.00 0.00 0.00 0.00 0.00 0.00 0.00 0.01 0.01 0.02 0.02 0.05 0.08 0.13 0.23 0.37 0.45 0.46 0.44 0.38 0.29 0.22 0.16 0.12 0.09 0.07 0.05 0.03 0.01 0.00 0.00 0.00
0.00 0.00 0.00 0.00 0.00 0.00 0.00 0.00 0.00 0.00 0.00 0.00 0.00 0.00 0.00 0.00 0.00 0.00 0.00 0.00 0.01 0.01 0.02 0.03 0.05 0.09 0.18 0.34 0.48 0.54 0.53 0.48 0.38 0.28 0.19 0.13 0.09 0.05 0.03 0.02 0.02 0.01 0.00 0.00
0.00 0.00 0.00 0.00 0.00 0.00 0.00 0.00 0.00 0.00 0.00 0.00 0.00 0.00 0.00 0.00 0.00 0.00 0.00 0.00 0.01 0.02 0.02 0.02 0.03 0.06 0.14 0.31 0.47 0.54 0.53 0.49 0.41 0.30 0.24 0.17 0.10 0.05 0.03 0.02 0.02 0.01 0.00 0.00
0.00 0.00 0.00 0.00 0.00 0.00 0.00 0.00 0.00 0.00 0.00 0.00 0.00 0.00 0.00 0.00 0.00 0.00 0.00 0.00 0.01 0.02 0.02 0.03 0.03 0.04 0.09 0.24 0.42 0.52 0.55 0.50 0.43 0.32 0.25 0.21 0.14 0.07 0.04 0.02 0.02 0.01 0.00 0.00
0.00 0.00 0.00 0.00 0.00 0.00 0.00 0.00 0.00 0.00 0.00 0.00 0.00 0.00 0.00 0.00 0.00 0.00 0.00 0.01 0.02 0.02 0.02 0.03 0.02 0.04 0.09 0.18 0.30 0.41 0.49 0.50 0.45 0.34 0.25 0.21 0.17 0.09 0.04 0.02 0.01 0.01 0.00 0.00
0.00 0.00 0.00 0.00 0.00 0.00 0.00 0.00 0.00 0.00 0.00 0.00 0.00 0.00 0.00 0.00 0.00 0.00 0.00 0.01 0.02 0.02 0.02 0.03 0.03 0.03 0.09 0.17 0.25 0.32 0.41 0.45 0.43 0.34 0.24 0.18 0.14 0.10 0.04 0.02 0.01 0.00 0.00 0.00
0.00 0.00 0.00 0.00 0.00 0.00 0.00 0.00 0.00 0.00 0.00 0.00 0.00 0.00 0.01 0.01 0.01 0.01 0.01 0.02 0.02 0.01 0.01 0.02 0.02 0.04 0.07 0.13 0.21 0.28 0.33 0.39 0.39 0.32 0.24 0.18 0.13 0.09 0.05 0.03 0.01 0.00 0.00 0.00
0.00 0.00 0.00 0.00 0.00 0.00 0.00 0.00 0.00 0.00 0.00 0.00 0.00 0.01 0.01 0.02 0.02 0.02 0.02 0.03 0.03 0.01 0.01 0.02 0.02 0.02 0.04 0.09 0.19 0.26 0.29 0.33 0.34 0.28 0.20 0.17 0.13 0.08 0.05 0.03 0.02 0.01 0.00 0.00
0.00 0.00 0.00 0.00 0.00 0.00 0.00 0.00 0.00 0.00 0.00 0.01 0.02 0.03 0.02 0.02 0.03 0.03 0.03 0.03 0.02 0.03 0.02 0.02 0.02 0.03 0.05 0.08 0.17 0.23 0.26 0.28 0.29 0.25 0.19 0.15 0.11 0.08 0.05 0.03 0.02 0.01 0.01 0.00
0.00 0.00 0.00 0.00 0.00 0.00 0.00 0.00 0.01 0.01 0.01 0.02 0.03 0.04 0.04 0.04 0.03 0.04 0.04 0.03 0.02 0.02 0.02 0.02 0.02 0.04 0.06 0.07 0.11 0.19 0.24 0.27 0.28 0.25 0.19 0.13 0.09 0.06 0.05 0.02 0.01 0.01 0.01 0.00
0.00 0.00 0.00 0.00 0.00 0.00 0.00 0.00 0.00 0.01 0.02 0.03 0.05 0.06 0.06 0.05 0.04 0.04 0.03 0.03 0.02 0.02 0.01 0.02 0.04 0.05 0.06 0.05 0.07 0.14 0.20 0.23 0.25 0.24 0.17 0.11 0.07 0.05 0.04 0.02 0.01 0.00 0.00 0.00
0.00 0.00 0.00 0.00 0.00 0.00 0.00 0.00 0.01 0.01 0.03 0.05 0.08 0.10 0.11 0.09 0.06 0.06 0.06 0.04 0.03 0.02 0.02 0.01 0.02 0.05 0.05 0.03 0.04 0.11 0.17 0.19 0.22 0.21 0.16 0.10 0.05 0.04 0.03 0.02 0.01 0.00 0.00 0.00
0.00 0.00 0.00 0.00 0.00 0.01 0.01 0.00 0.01 0.01 0.03 0.05 0.08 0.12 0.15 0.14 0.12 0.09 0.08 0.06 0.04 0.03 0.02 0.01 0.02 0.04 0.04 0.03 0.03 0.08 0.15 0.17 0.20 0.19 0.15 0.10 0.04 0.03 0.02 0.01 0.00 0.00 0.00 0.00
0.00 0.00 0.00 0.00 0.00 0.01 0.01 0.01 0.01 0.02 0.04 0.08 0.10 0.12 0.13 0.15 0.17 0.15 0.11 0.07 0.05 0.04 0.03 0.02 0.03 0.04 0.03 0.02 0.02 0.06 0.13 0.16 0.19 0.18 0.12 0.08 0.04 0.03 0.01 0.01 0.00 0.00 0.00 0.00
0.00 0.00 0.00 0.00 0.00 0.00 0.01 0.02 0.03 0.05 0.10 0.16 0.19 0.16 0.15 0.16 0.16 0.14 0.11 0.07 0.05 0.04 0.03 0.03 0.03 0.03 0.02 0.01 0.02 0.07 0.10 0.13 0.16 0.14 0.09 0.06 0.04 0.02 0.01 0.01 0.01 0.00 0.00 0.01
0.00 0.00 0.00 0.00 0.00 0.00 0.01 0.03 0.05 0.09 0.15 0.24 0.30 0.24 0.20 0.18 0.15 0.13 0.12 0.10 0.07 0.06 0.05 0.03 0.04 0.03 0.02 0.02 0.04 0.06 0.07 0.08 0.10 0.10 0.07 0.04 0.02 0.01 0.01 0.01 0.01 0.00 0.00 0.00
MSLP
1014.84 1015.09 1015.35 1015.61 1015.86 1016.10 1016.28 1016.39 1016.39 1016.29 1016.08 1015.77 1015.38 1014.93 1014.46 1013.98 1013.50 1013.03 1012.57 1012.09 1011.58 1011.03 1010.45 1009.83 1009.20 1008.59 1008.03 1007.56 1007.22 1007.03 1007.02 1007.16 1007.46 1007.86 1008.31 1008.76 1009.14 1009.39 1009.46 1009.33 1008.99 1008.46 1007.78 1007.01
1014.87 1015.15 1015.41 1015.65 1015.87 1016.06 1016.20 1016.30 1016.33 1016.29 1016.19 1016.01 1015.77 1015.48 1015.15 1014.77 1014.35 1013.89 1013.38 1012.82 1012.21 1011.54 1010.82 1010.08 1009.33 1008.60 1007.94 1007.38 1006.94 1006.67 1006.56 1006.63 1006.86 1007.22 1007.67 1008.15 1008.60 1008.97 1009.21 1009.28 1009.16 1008.87 1008.43 1007.88
1014.93 1015.25 1015.54 1015.79 1016.01 1016.19 1016.33 1016.43 1016.49 1016.50 1016.47 1016.37 1016.23 1016.02 1015.75 1015.41 1015.00 1014.52 1013.97 1013.34 1012.65 1011.89 1011.10 1010.28 1009.46 1008.67 1007.94 1007.31 1006.80 1006.43 1006.23 1006.20 1006.34 1006.63 1007.03 1007.51 1008.00 1008.46 1008.84 1009.09 1009.19 1009.13 1008.93 1008.62
1015.12 1015.47 1015.78 1016.06 1016.29 1016.48 1016.63 1016.74 1016.81 1016.84 1016.81 1016.74 1016.61 1016.41 1016.13 1015.78 1015.34 1014.83 1014.23 1013.56 1012.82 1012.04 1011.23 1010.40 1009.57 1008.78 1008.03 1007.36 1006.79 1006.35 1006.05 1005.91 1005.93 1006.11 1006.43 1006.86 1007.35 1007.86 1008.34 1008.73 1009.01 1009.16 1009.17 1009.07
1015.47 1015.82 1016.15 1016.44 1016.68 1016.88 1017.03 1017.13 1017.18 1017.17 1017.11 1016.99 1016.81 1016.55 1016.22 1015.81 1015.32 1014.76 1014.13 1013.44 1012.71 1011.96 1011.18 1010.41 1009.63 1008.88 1008.16 1007.49 1006.88 1006.37 1005.98 1005.71 1005.61 1005.66 1005.86 1006.21 1006.66 1007.17 1007.70 1008.19 1008.61 1008.92 1009.10 1009.18
1015.97 1016.30 1016.61 1016.90 1017.13 1017.31 1017.43 1017.49 1017.48 1017.41 1017.27 1017.06 1016.78 1016.42 1016.00 1015.50 1014.95 1014.35 1013.70 1013.03 1012.35 1011.66 1010.98 1010.29 1009.62 1008.94 1008.28 1007.63 1007.01 1006.44 1005.96 1005.58 1005.34 1005.25 1005.33 1005.57 1005.94 1006.42 1006.95 1007.50 1008.00 1008.43 1008.75 1008.97
1016.58 1016.86 1017.14 1017.38 1017.58 1017.71 1017.77 1017.76 1017.66 1017.49 1017.24 1016.91 1016.50 1016.03 1015.50 1014.93 1014.31 1013.68 1013.04 1012.41 1011.80 1011.20 1010.63 1010.06 1009.49 1008.91 1008.31 1007.70 1007.08 1006.47 1005.91 1005.43 1005.06 1004.84 1004.79 1004.92 1005.21 1005.63 1006.14 1006.71 1007.27 1007.78 1008.20 1008.53
1017.24 1017.46 1017.66 1017.84 1017.96 1018.01 1017.98 1017.87 1017.67 1017.39 1017.01 1016.56 1016.04 1015.46 1014.83 1014.18 1013.53 1012.88 1012.26 1011.68 1011.14 1010.64 1010.17 1009.71 1009.24 1008.75 1008.21 1007.63 1007.01 1006.37 1005.75 1005.18 1004.72 1004.39 1004.23 1004.26 1004.47 1004.84 1005.32 1005.89 1006.48 1007.05 1007.55 1007.97
1017.88 1018.02 1018.13 1018.21 1018.23 1018.18 1018.05 1017.83 1017.52 1017.11 1016.63 1016.07 1015.45 1014.78 1014.09 1013.40 1012.72 1012.08 1011.48 1010.95 1010.47 1010.05 1009.66 1009.28 1008.88 1008.44 1007.94 1007.38 1006.75 1006.09 1005.43 1004.80 1004.27 1003.86 1003.63 1003.59 1003.74 1004.07 1004.54 1005.11 1005.72 1006.34 1006.91 1007.40
1018.44 1018.49 1018.50 1018.46 1018.37 1018.20 1017.95 1017.62 1017.20 1016.70 1016.13 1015.49 1014.80 1014.09 1013.36 1012.65 1011.98 1011.35 1010.78 1010.28 1009.85 1009.47 1009.12 1008.77 1008.40 1007.98 1007.49 1006.92 1006.29 1005.61 1004.92 1004.26 1003.69 1003.26 1002.99 1002.91 1003.04 1003.35 1003.82 1004.40 1005.04 1005.70 1006.33 1006.90
1018.90 1018.84 1018.74 1018.57 1018.34 1018.05 1017.68 1017.25 1016.74 1016.17 1015.54 1014.86 1014.15 1013.42 1012.70 1012.00 1011.34 1010.74 1010.19 1009.71 1009.29 1008.92 1008.57 1008.21 1007.82 1007.38 1006.87 1006.28 1005.63 1004.94 1004.24 1003.58 1003.01 1002.57 1002.31 1002.24 1002.37 1002.69 1003.16 1003.77 1004.44 1005.15 1005.84 1006.48
1019.21 1019.04 1018.81 1018.51 1018.15 1017.73 1017.25 1016.73 1016.15 1015.53 1014.87 1014.19 1013.49 1012.78 1012.09 1011.42 1010.80 1010.22 1009.69 1009.21 1008.79 1008.39 1008.00 1007.60 1007.16 1006.67 1006.12 1005.50 1004.83 1004.14 1003.45 1002.81 1002.27 1001.86 1001.62 1001.58 1001.73 1002.07 1002.58 1003.20 1003.91 1004.66 1005.40 1006.11
1019.35 1019.06 1018.70 1018.26 1017.77 1017.24 1016.67 1016.06 1015.44 1014.79 1014.13 1013.46 1012.79 1012.13 1011.48 1010.86 1010.27 1009.72 1009.20 1008.72 1008.27 1007.83 1007.39 1006.93 1006.44 1005.90 1005.30 1004.66 1003.98 1003.29 1002.62 1002.01 1001.51 1001.15 1000.95 1000.95 1001.14 1001.50 1002.02 1002.67 1003.41 1004.18 1004.97 1005.72
1019.31 1018.90 1018.40 1017.83 1017.22 1016.59 1015.93 1015.27 1014.60 1013.95 1013.29 1012.65 1012.02 1011.41 1010.81 1010.23 1009.68 1009.15 1008.64 1008.15 1007.68 1007.20 1006.72 1006.21 1005.67 1005.08 1004.46 1003.80 1003.12 1002.46 1001.82 1001.26 1000.81 1000.49 1000.34 1000.37 1000.58 1000.96 1001.49 1002.14 1002.88 1003.67 1004.47 1005.26
1019.09 1018.54 1017.91 1017.23 1016.51 1015.79 1015.07 1014.36 1013.67 1013.01 1012.36 1011.75 1011.15 1010.57 1010.01 1009.47 1008.95 1008.44 1007.94 1007.45 1006.96 1006.46 1005.95 1005.42 1004.86 1004.26 1003.64 1002.99 1002.34 1001.71 1001.12 1000.61 1000.21 999.93 999.81 999.86 1000.07 1000.44 1000.96 1001.60 1002.32 1003.10 1003.91 1004.71
1018.66 1017.99 1017.25 1016.47 1015.68 1014.88 1014.11 1013.37 1012.67 1012.00 1011.36 1010.75 1010.17 1009.61 1009.07 1008.55 1008.04 1007.54 1007.05 1006.57 1006.09 1005.60 1005.10 1004.58 1004.04 1003.47 1002.88 1002.27 1001.67 1001.09 1000.56 1000.09 999.72 999.47 999.37 999.41 999.61 999.96 1000.44 1001.04 1001.74 1002.49 1003.28 1004.07
1018.05 1017.28 1016.46 1015.61 1014.76 1013.93 1013.13 1012.37 1011.65 1010.97 1010.32 1009.70 1009.12 1008.55 1008.00 1007.47 1006.97 1006.47 1006.00 1005.53 1005.08 1004.63 1004.17 1003.70 1003.22 1002.71 1002.19 1001.66 1001.13 1000.61 1000.13 999.70 999.36 999.13 999.02 999.04 999.21 999.51 999.94 1000.49 1001.14 1001.85 1002.62 1003.40
1017.30 1016.46 1015.59 1014.71 1013.84 1012.99 1012.19 1011.42 1010.68 1009.98 1009.31 1008.66 1008.04 1007.44 1006.86 1006.30 1005.78 1005.28 1004.82 1004.38 1003.97 1003.58 1003.20 1002.81 1002.42 1002.01 1001.59 1001.14 1000.69 1000.24 999.81 999.42 999.10 998.86 998.73 998.72 998.84 999.09 999.47 999.96 1000.56 1001.23 1001.96 1002.72
1016.46 1015.59 1014.71 1013.83 1012.97 1012.14 1011.34 1010.57 1009.83 1009.10 1008.39 1007.68 1007.00 1006.34 1005.70 1005.10 1004.54 1004.03 1003.58 1003.18 1002.82 1002.51 1002.22 1001.94 1001.66 1001.36 1001.04 1000.70 1000.32 999.94 999.56 999.20 998.88 998.63 998.47 998.42 998.49 998.69 999.01 999.46 1000.01 1000.64 1001.34 1002.08
1015.61 1014.75 1013.89 1013.05 1012.23 1011.43 1010.65 1009.88 1009.12 1008.35 1007.58 1006.81 1006.04 1005.30 1004.58 1003.92 1003.32 1002.79 1002.34 1001.98 1001.68 1001.45 1001.26 1001.09 1000.92 1000.74 1000.53 1000.27 999.98 999.65 999.30 998.96 998.64 998.37 998.19 998.10 998.13 998.28 998.56 998.96 999.48 1000.08 1000.76 1001.48
1014.82 1014.01 1013.20 1012.41 1011.64 1010.88 1010.12 1009.34 1008.55 1007.73 1006.89 1006.03 1005.17 1004.33 1003.53 1002.80 1002.15 1001.59 1001.15 1000.81 1000.58 1000.42 1000.32 1000.26 1000.20 1000.11 999.99 999.82 999.59 999.30 998.98 998.65 998.32 998.04 997.82 997.71 997.70 997.82 998.08 998.45 998.94 999.53 1000.19 1000.89
1014.18 1013.42 1012.67 1011.94 1011.22 1010.48 1009.72 1008.93 1008.09 1007.20 1006.28 1005.32 1004.36 1003.42 1002.54 1001.73 1001.03 1000.45 1000.00 999.69 999.50 999.41 999.40 999.42 999.44 999.45 999.40 999.28 999.10 998.85 998.54 998.21 997.88 997.59 997.35 997.22 997.19 997.30 997.53 997.90 998.37 998.95 999.59 1000.27
1013.71 1013.00 1012.31 1011.62 1010.93 1010.20 1009.42 1008.59 1007.69 1006.72 1005.70 1004.64 1003.58 1002.55 1001.57 1000.70 999.95 999.35 998.90 998.61 998.46 998.42 998.46 998.55 998.64 998.70 998.71 998.63 998.48 998.25 997.96 997.64 997.30 997.00 996.76 996.62 996.59 996.69 996.92 997.28 997.75 998.31 998.94 999.60
1013.42 1012.76 1012.10 1011.43 1010.73 1009.98 1009.16 1008.26 1007.28 1006.22 1005.10 1003.95 1002.79 1001.67 1000.62 999.69 998.90 998.28 997.83 997.55 997.42 997.42 997.50 997.63 997.76 997.86 997.91 997.86 997.73 997.52 997.25 996.93 996.61 996.31 996.08 995.94 995.92 996.03 996.26 996.62 997.09 997.64 998.25 998.89
1013.30 1012.66 1012.01 1011.33 1010.60 1009.79 1008.91 1007.93 1006.85 1005.70 1004.48 1003.23 1001.99 1000.80 999.70 998.72 997.90 997.26 996.81 996.53 996.42 996.43 996.53 996.68 996.84 996.96 997.02 997.00 996.89 996.70 996.45 996.15 995.85 995.58 995.37 995.25 995.25 995.37 995.61 995.97 996.43 996.97 997.56 998.17
1013.31 1012.67 1012.00 1011.28 1010.49 1009.62 1008.64 1007.57 1006.41 1005.16 1003.86 1002.54 1001.23 999.99 998.84 997.84 997.00 996.35 995.89 995.61 995.50 995.51 995.61 995.77 995.93 996.06 996.13 996.12 996.03 995.87 995.64 995.38 995.12 994.89 994.72 994.64 994.66 994.80 995.05 995.41 995.87 996.39 996.95 997.54
1013.41 1012.75 1012.04 1011.27 1010.41 1009.46 1008.40 1007.25 1006.00 1004.68 1003.32 1001.95 1000.60 999.33 998.17 997.15 996.31 995.64 995.17 994.88 994.75 994.75 994.83 994.97 995.12 995.24 995.32 995.33 995.26 995.13 994.95 994.74 994.54 994.36 994.24 994.20 994.26 994.42 994.69 995.06 995.50 996.00 996.54 997.10
Thickness
5718 5723 5725 5721 5723 5726 5716 5707 5691 5683 5677 5677 5682 5685 5686 5687 5688 5688 5687 5686 5685 5684 5684 5685 5686 5688 5688 5687 5684 5681 5675 5668 5663 5658 5653 5648 5643 5639 5636 5634 5634 5634 5635 5635
5716 5724 5723 5716 5717 5716 5706 5701 5689 5678 5668 5674 5677 5678 5675 5673 5673 5670 5670 5670 5670 5671 5671 5671 5672 5674 5676 5677 5677 5674 5669 5664 5659 5653 5647 5642 5637 5633 5629 5627 5626 5625 5625 5625
5697 5709 5708 5692 5699 5692 5682 5679 5675 5661 5660 5667 5666 5665 5660 5658 5657 5655 5654 5654 5653 5654 5654 5656 5658 5660 5663 5666 5668 5666 5663 5659 5654 5648 5642 5637 5633 5628 5624 5620 5618 5617 5616 5615
5691 5694 5681 5685 5698 5689 5673 5664 5664 5659 5656 5654 5653 5653 5653 5649 5644 5641 5640 5639 5639 5639 5640 5642 5644 5647 5651 5655 5657 5657 5655 5653 5649 5644 5638 5633 5628 5623 5619 5615 5612 5610 5609 5607
5680 5676 5681 5685 5686 5680 5666 5648 5652 5647 5644 5643 5643 5643 5642 5640 5634 5629 5627 5626 5625 5625 5625 5627 5628 5631 5635 5640 5643 5645 5646 5646 5645 5640 5635 5629 5624 5620 5616 5611 5608 5605 5603 5601
5678 5670 5661 5666 5677 5680 5665 5636 5639 5636 5631 5628 5625 5615 5619 5625 5622 5619 5617 5615 5613 5612 5611 5611 5612 5614 5617 5621 5625 5628 5633 5636 5638 5636 5632 5627 5623 5618 5614 5610 5606 5602 5599 5597
5672 5664 5656 5653 5663 5666 5643 5627 5626 5622 5618 5613 5606 5601 5605 5606 5603 5601 5599 5598 5596 5594 5592 5592 5594 5595 5596 5600 5604 5611 5618 5624 5627 5628 5627 5625 5620 5616 5612 5608 5603 5599 5596 5593
5659 5652 5644 5643 5642 5628 5617 5617 5614 5610 5605 5600 5596 5594 5592 5590 5587 5585 5583 5581 5579 5576 5575 5574 5574 5575 5578 5581 5587 5594 5602 5609 5615 5619 5620 5620 5616 5612 5609 5605 5600 5596 5592 5588
5646 5636 5630 5629 5621 5615 5610 5604 5600 5595 5591 5586 5582 5579 5577 5574 5572 5569 5566 5564 5562 5559 5558 5557 5556 5557 5559 5565 5571 5577 5585 5595 5603 5609 5613 5613 5611 5609 5605 5602 5599 5594 5591 5587
5632 5625 5622 5617 5612 5606 5600 5592 5587 5582 5577 5572 5567 5565 5563 5560 5557 5553 5551 5547 5545 5542 5541 5541 5541 5541 5542 5547 5553 5560 5570 5580 5590 5598 5603 5607 5607 5606 5603 5601 5598 5595 5591 5587
5619 5612 5608 5605 5599 5594 5588 5583 5578 5574 5568 5562 5557 5554 5550 5546 5543 5539 5536 5533 5529 5526 5526 5527 5527 5527 5528 5532 5537 5545 5554 5566 5577 5587 5594 5600 5602 5603 5602 5603 5602 5598 5594 5591
5601 5598 5590 5588 5589 5585 5578 5573 5568 5561 5556 5551 5543 5537 5534 5530 5527 5524 5522 5519 5517 5515 5514 5514 5514 5514 5516 5519 5523 5531 5540 5553 5565 5576 5586 5592 5596 5595 5596 5599 5598 5596 5595 5592
5597 5594 5586 5582 5579 5573 5566 5560 5554 5546 5539 5533 5529 5524 5519 5516 5515 5512 5510 5508 5506 5506 5505 5504 5503 5504 5506 5509 5514 5520 5530 5543 5555 5568 5578 5586 5590 5591 5589 5588 5590 5590 5589 5589
5592 5584 5575 5570 5564 5559 5552 5546 5539 5533 5527 5521 5517 5514 5510 5508 5506 5504 5503 5502 5500 5499 5498 5497 5496 5497 5499 5502 5507 5514 5524 5536 5548 5561 5571 5580 5586 5589 5589 5588 5585 5582 5583 5584
5583 5574 5565 5559 5552 5545 5539 5532 5525 5520 5516 5513 5509 5506 5503 5502 5501 5500 5499 5498 5496 5494 5493 5492 5491 5493 5495 5498 5503 5510 5519 5531 5542 5555 5566 5576 5582 5585 5586 5587 5586 5581 5576 5576
5571 5563 5555 5546 5539 5532 5525 5518 5512 5510 5508 5505 5503 5502 5500 5499 5498 5497 5495 5493 5490 5489 5489 5487 5488 5490 5491 5495 5501 5508 5517 5528 5539 5549 5560 5571 5578 5582 5584 5584 5583 5581 5579 5575
5556 5548 5541 5534 5527 5521 5514 5509 5505 5503 5502 5501 5501 5501 5499 5497 5495 5494 5493 5491 5488 5487 5486 5484 5486 5489 5491 5495 5500 5507 5515 5525 5537 5547 5557 5567 5576 5580 5584 5584 5583 5582 5581 5579
5547 5538 5530 5522 5517 5513 5510 5507 5503 5502 5500 5500 5500 5498 5496 5493 5492 5491 5490 5488 5486 5485 5484 5483 5485 5487 5490 5494 5500 5506 5514 5524 5535 5545 5556 5566 5573 5579 5582 5584 5584 5583 5580 5575
5540 5532 5524 5518 5512 5508 5505 5502 5501 5500 5499 5498 5496 5495 5492 5491 5489 5488 5486 5484 5482 5481 5482 5482 5483 5485 5489 5494 5501 5508 5516 5525 5535 5545 5554 5563 5570 5577 5582 5584 5584 5583 5581 5577
5534 5527 5520 5515 5510 5505 5501 5500 5499 5498 5497 5495 5493 5491 5490 5488 5486 5484 5481 5479 5479 5479 5479 5480 5482 5485 5489 5495 5503 5509 5518 5526 5535 5544 5553 5562 5570 5577 5582 5584 5585 5584 5582 5579
5527 5521 5515 5510 5506 5503 5499 5497 5495 5495 5494 5492 5489 5487 5486 5485 5482 5480 5478 5478 5479 5477 5477 5478 5480 5484 5489 5496 5503 5509 5518 5527 5536 5545 5555 5563 5571 5577 5582 5586 5586 5586 5584 5582
5521 5515 5510 5505 5502 5499 5498 5495 5494 5493 5491 5490 5488 5486 5483 5481 5480 5478 5476 5474 5476 5474 5474 5477 5480 5485 5490 5496 5502 5511 5520 5530 5538 5547 5556 5565 5572 5578 5583 5587 5589 5588 5587 5585
5515 5509 5503 5499 5497 5495 5495 5494 5492 5490 5489 5487 5485 5483 5480 5478 5476 5475 5477 5476 5473 5473 5473 5476 5480 5485 5490 5497 5504 5514 5523 5532 5540 5549 5559 5567 5574 5581 5586 5589 5591 5591 5589 5587
5509 5504 5500 5496 5494 5492 5493 5493 5491 5490 5487 5486 5485 5483 5480 5478 5478 5475 5473 5474 5473 5472 5474 5477 5480 5485 5492 5499 5508 5516 5525 5534 5544 5553 5562 5570 5578 5584 5588 5591 5592 5592 5592 5589
5504 5499 5496 5492 5490 5490 5490 5489 5490 5490 5488 5488 5487 5485 5482 5478 5477 5477 5476 5476 5476 5475 5478 5481 5485 5490 5497 5505 5513 5522 5530 5539 5547 5556 5565 5573 5581 5586 5590 5593 5594 5594 5593 5591
5499 5495 5491 5488 5486 5486 5486 5487 5487 5488 5487 5487 5488 5487 5485 5484 5482 5481 5480 5480 5480 5480 5482 5486 5492 5498 5504 5512 5520 5529 5537 5544 5552 5560 5568 5576 5583 5587 5591 5594 5596 5595 5594 5593
5495 5491 5489 5488 5488 5487 5486 5486 5486 5487 5487 5486 5487 5488 5489 5489 5489 5487 5486 5486 5487 5488 5491 5495 5499 5506 5513 5520 5529 5536 5544 5551 5558 5565 5572 5579 5584 5588 5591 5594 5595 5595 5595 5594